カタログに戻る

STARLINK-4011

運用中通信VLEO
NORAD 52615·PAYLOAD·🇺🇸 United States

打ち上げ May 14, 2022 から Cape Canaveral Space Force Station

Loading…

次のパス (今後24時間)

TLE

最新Source: CelesTrak SupGP

元期: Sep 14, 2026, 22:12 UTC

1 52615C 22052T   26257.92548611 -.00031648  00000+0 -90570-3 0  2572
2 52615  53.1583 142.2386 0001263  83.8063 196.1915 15.35406856    18

AllMySatでSTARLINK-4011をリアルタイム追跡

Download on the App Store